Overview Statistics Trail Chart Weather Telemetry Raw packets
 

This is the latest recevied weather packets stored in our database for station/object KE5QKR. If no packets are shown the sender has not sent any weather packets the latest 10 day(s).

<< 97 98 99 100 101 102 103 >>
Time Temp. Humidity Pressure Rain* Wind** Luminosity Snow
1777229306 27.22° C 70% 1010.5 hPa 0 mm - 557 W/m² -
1777229004 27.78° C 68% 1010.6 hPa 0 mm - 236 W/m² -
1777228700 27.78° C 68% 1010.4 hPa 0 mm - 604 W/m² -
1777228396 27.78° C 73% 1010.3 hPa 1.27 mm - 734 W/m² -
1777228092 27.78° C 74% 1010.3 hPa 1.27 mm - 352 W/m² -
1777227791 27.22° C 74% 1010.5 hPa 0 mm - 747 W/m² -
1777227489 26.67° C 75% 1010.5 hPa 0 mm - 745 W/m² -
1777227189 26.67° C 72% 1010.5 hPa 0 mm - 743 W/m² -
1777226886 26.11° C 74% 1010.4 hPa 0 mm - 749 W/m² -
1777226584 25.56° C 77% 1010.7 hPa 1.78 mm - 759 W/m² -
1777226280 25.56° C 79% 1010.5 hPa 1.78 mm - 766 W/m² -
1777225976 25° C 78% 1010.5 hPa 0 mm - 767 W/m² -
1777225672 25° C 75% 1010.6 hPa 0 mm - 778 W/m² -
1777225370 25° C 84% 1010.6 hPa 1.78 mm - 776 W/m² -
1777225066 25° C 81% 1010.6 hPa 1.78 mm - 774 W/m² -
1777224763 25° C 87% 1010.5 hPa 0 mm - 787 W/m² -
1777224459 24.44° C 85% 1010.9 hPa 0 mm - 774 W/m² -
1777224155 25° C 87% 1010.8 hPa 1.27 mm - 779 W/m² -
1777223851 24.44° C 89% 1010.4 hPa 1.27 mm - 787 W/m² -
1777223547 23.89° C 90% 1010.5 hPa 0 mm - 783 W/m² -
1777223245 23.89° C 91% 1010.5 hPa 0 mm - 771 W/m² -
1777222943 23.89° C 92% 1010.8 hPa 1.78 mm - 782 W/m² -
1777222640 23.89° C 90% 1010.9 hPa 1.78 mm - 787 W/m² -
1777222337 23.33° C 92% 1010.8 hPa 0 mm - 793 W/m² -
1777222036 23.33° C 93% 1011 hPa 1.27 mm - 795 W/m² -

* Rain latest hour (hover to see other rain measurements)
** Current wind speed in m/s (hover to see current wind gust speed)